Tracking 28915 objects as of 29-May-2024
HD Live streaming from Space Station
objects crossing your sky now

H-2A DEB

Track H-2A DEB now!
10-day predictions


NORAD ID: 38347
Int'l Code: 2012-025H
Perigee: 623.5 km
Apogee: 635.6 km
Inclination: 98.2 °
Period: 97.2 minutes
Semi major axis: 7000 km
RCS: 10.6734 m2 (large)
Launch date: May 17, 2012
Source: Japan (JPN)
Launch site: TANEGASHIMA SPACE CENTER (TNSTA)

Note: This is SATELLITE DEBRIS
Your satellite tracking list
Your tracking list is empty




NASA's NSSDC Master Catalog

Two Line Element Set (TLE):
1 38347U 12025H   24149.88608726  .00004315  00000-0  54784-3 0  9994
2 38347  98.1643 247.6838 0008694  48.0837 312.1116 14.82190817647332
Source of the keplerian elements: AFSPC